Berlin, NH

5:03 AM EDT on September 24, 2017 (GMT -0400)
Berlin Municipal

Weather History for KBML - May, 2013

Change the Weather History Date:

Sunday, May 19, 2013

  Actual Average Record
Temperature  
Mean Temperature 50 °F -  
Max Temperature 71 °F 62 °F 84 °F (2003)
Min Temperature 32 °F 34 °F 24 °F (2002)
Degree Days  
Heating Degree Days 14    
Moisture  
Dew Point 38 °F    
Average Humidity 79    
Maximum Humidity 100    
Minimum Humidity 26    
Precipitation  
Precipitation 0.08 in - - ()
Sea Level Pressure  
Sea Level Pressure 30.29 in    
Wind  
Wind Speed 2 mph (SSE)    
Max Wind Speed 15 mph    
Max Gust Speed 20 mph    
Visibility 6 miles    
Events Fog , Rain    
Averages and records for this station are not official NWS values.
T = Trace of Precipitation, MM = Missing Value Source: NWS Daily Summary

Daily Weather History Graph

Daily Weather History Graph

Search for Another Location

Airport or City:

Trip Planner

Search our weather history database for the weather conditions in past years. The results will help you decide how hot, cold, wet, or windy it might be!

Date:

Astronomy

May. 19, 2013 Rise Set
Actual Time 5:12 AM EDT 8:10 PM EDT
Civil Twilight 4:38 AM EDT 8:45 PM EDT
Nautical Twilight 3:54 AM EDT 9:29 PM EDT
Astronomical Twilight 3:02 AM EDT 10:21 PM EDT
Moon 1:57 PM EDT (5/19) 1:49 AM EDT (5/19)
Length of Visible Light 16h 06m
Length of Day
14h 57m
Waxing Gibbous, 65% of the Moon is Illuminated
May 19
Waxing Gibbous
May 25
Full
May 31
Last Quarter
Jun 8
New
Jun 16
First Quarter

Hourly Weather History & Observations

Time (EDT) Temp. Dew Point Humidity Pressure Visibility Wind Dir Wind Speed Gust Speed Precip Events Conditions
12:52 AM 37.0 °F 35.1 °F 93% 30.30 in 10.0 mi Calm Calm - N/A   Clear
1:33 AM 35.6 °F 33.8 °F 93% 30.29 in 10.0 mi Calm Calm - N/A   Scattered Clouds
1:49 AM 35.6 °F 33.8 °F 93% 30.29 in 10.0 mi Calm Calm - N/A   Mostly Cloudy
1:52 AM 34.0 °F 32.0 °F 92% 30.31 in 10.0 mi Calm Calm - N/A   Mostly Cloudy
2:05 AM 33.8 °F 33.8 °F 100% 30.28 in 2.5 mi Calm Calm - N/A   Mostly Cloudy
2:13 AM 33.8 °F 33.8 °F 100% 30.29 in 9.0 mi Calm Calm - N/A   Mostly Cloudy
2:45 AM 33.8 °F 30.2 °F 87% 30.29 in 1.8 mi Calm Calm - N/A   Mostly Cloudy
2:52 AM 34.0 °F 32.0 °F 92% 30.32 in 1.2 mi Calm Calm - N/A   Mostly Cloudy
2:55 AM 32.0 °F 30.2 °F 93% 30.29 in 2.5 mi Calm Calm - N/A   Overcast
2:59 AM 33.8 °F 30.2 °F 87% 30.29 in 1.2 mi Calm Calm - N/A   Overcast
3:02 AM 33.8 °F 32.0 °F 93% 30.29 in 0.8 mi Calm Calm - N/A   Mist
3:17 AM 32.0 °F 30.2 °F 93% 30.29 in 1.5 mi Calm Calm - N/A   Overcast
3:20 AM 32.0 °F 30.2 °F 93% 30.29 in 0.8 mi Calm Calm - N/A   Mist
3:29 AM 33.8 °F 32.0 °F 93% 30.30 in 0.2 mi Calm Calm - N/A Fog Fog
4:52 AM 34.0 °F 33.1 °F 96% 30.34 in 0.2 mi Calm Calm - N/A Fog Fog
5:23 AM 33.8 °F 33.8 °F 100% 30.32 in 0.2 mi Calm Calm - N/A Fog Fog
5:52 AM 34.0 °F 33.1 °F 96% 30.35 in 0.2 mi Calm Calm - N/A Fog Fog
6:52 AM 37.0 °F 36.0 °F 96% 30.35 in 0.2 mi Calm Calm - N/A Fog Fog
7:29 AM 39.2 °F 39.2 °F 100% 30.33 in 0.8 mi Calm Calm - N/A   Overcast
7:37 AM 41.0 °F 39.2 °F 93% 30.33 in 1.5 mi Calm Calm - N/A   Overcast
7:43 AM 41.0 °F 39.2 °F 93% 30.33 in 3.0 mi Calm Calm - N/A   Overcast
7:52 AM 42.1 °F 39.9 °F 92% 30.35 in 10.0 mi Calm Calm - N/A   Mostly Cloudy
8:03 AM 42.8 °F 41.0 °F 93% 30.33 in 10.0 mi Calm Calm - N/A   Scattered Clouds
8:52 AM 52.0 °F 43.0 °F 71% 30.34 in 10.0 mi Calm Calm - N/A   Clear
9:52 AM 60.1 °F 45.0 °F 57% 30.33 in 10.0 mi Calm Calm - N/A   Clear
10:52 AM 64.0 °F 43.0 °F 46% 30.31 in 10.0 mi Calm Calm - N/A   Clear
11:52 AM 69.1 °F 36.0 °F 30% 30.30 in 10.0 mi South 6.9 mph - N/A   Scattered Clouds
12:52 PM 69.1 °F 33.1 °F 26% 30.29 in 10.0 mi South 11.5 mph - N/A   Partly Cloudy
1:52 PM 68.0 °F 35.1 °F 30% 30.27 in 10.0 mi SSE 15.0 mph 19.6 mph N/A   Clear
2:52 PM 64.9 °F 41.0 °F 42% 30.27 in 10.0 mi SSE 12.7 mph 19.6 mph N/A   Overcast
3:52 PM 64.0 °F 39.9 °F 41% 30.26 in 10.0 mi SSE 11.5 mph 19.6 mph N/A   Scattered Clouds
4:52 PM 63.0 °F 41.0 °F 45% 30.25 in 10.0 mi SSE 13.8 mph 19.6 mph N/A   Clear
5:52 PM 62.1 °F 43.0 °F 50% 30.23 in 10.0 mi South 9.2 mph - N/A   Scattered Clouds
6:52 PM 60.1 °F 45.0 °F 57% 30.23 in 10.0 mi SSE 4.6 mph - N/A   Overcast
7:52 PM 57.0 °F 46.9 °F 69% 30.23 in 10.0 mi SSE 5.8 mph - 0.00 in Rain Light Rain
8:52 PM 55.0 °F 51.1 °F 86% 30.23 in 9.0 mi Calm Calm - 0.01 in Rain Light Rain
9:52 PM 53.1 °F 51.1 °F 93% 30.22 in 7.0 mi Calm Calm - 0.05 in Rain Light Rain
10:52 PM 53.1 °F 51.1 °F 93% 30.19 in 10.0 mi South 4.6 mph - 0.02 in Rain Light Rain
11:52 PM 53.1 °F 50.0 °F 89% 30.16 in 10.0 mi SE 8.1 mph - 0.00 in   Overcast